Location: Bowman Observatory
(41.0326°N, 73.6210°W)
Time: 09:28:15
(UTC-04:00)

Cosmos 2298 Rocket - Visible Passes

Search period start: 27 August 2016 00:00
Search period end: 06 September 2016 00:00
Orbit: 777 x 783 km, 74.0° (Epoch: 26 August)

Date Brightness Start Highest point End Pass type
(mag) Time Alt. Az. Time Alt. Az. Time Alt. Az.
27 Aug 4.8 20:14:07 10° N 20:18:59 35° ENE 20:23:35 11° SE visible
27 Aug 5.7 21:56:39 10° NW 22:01:09 29° W 22:04:08 17° SW visible
28 Aug 5.0 21:22:49 10° NNW 21:27:53 46° WSW 21:31:50 16° S visible
29 Aug 4.2 20:49:14 10° NNW 20:54:33 73° WSW 20:59:38 11° S visible
30 Aug 4.0 20:15:48 10° NNW 20:21:08 72° ENE 20:26:26 10° SSE visible
30 Aug 6.7 22:00:14 10° WNW 22:02:45 13° W 22:05:16 10° WSW visible
31 Aug 6.3 21:25:36 10° NW 21:29:36 22° W 21:33:35 10° SSW visible
01 Sep 5.6 20:51:36 10° NW 20:56:22 35° W 21:01:08 10° SSW visible
02 Sep 4.8 20:17:53 10° NNW 20:23:04 55° WSW 20:28:15 10° S visible
03 Sep 4.1 19:44:21 10° NNW 19:49:42 88° WSW 19:55:02 10° SSE visible
04 Sep 6.7 20:54:46 10° WNW 20:58:01 17° W 21:01:16 10° SW visible
05 Sep 6.2 20:20:28 10° NW 20:24:50 26° W 20:29:12 10° SSW visible
